Terminal Aerodrome Forecast
Issued by NWS Mt. Holly, NJ

Home | Current Version | Previous Version | Text Only | Print | Product List | Glossary On
Versions: 1 2 3 4 5 6 7 8 9 10 11 12 13 14 15 16 17 18
000
FTUS41 KPHI 301945 AAA
TAFTTN
TAF AMD
KTTN 301945Z 3020/3118 24005KT P6SM SCT025 BKN090
      TEMPO 3023/3101 -SHRA BKN035
     FM310100 VRB02KT 5SM BR SCT100
     FM310400 VRB02KT 2SM BR VV008
     FM311300 36005KT P6SM FEW040=

USA.gov is the U.S. government's official web portal to all federal, state and local government web resources and services.